Location: Chamerau
(49.1969°N, 12.7525°E)
Time: 09:08:12
(UTC+00:00)

Ariane Rocket - Pass Details

Date: 18 September 2020
Orbit: 760 x 770 km, 98.7° (Epoch: 27 October)

Event Time Altitude Azimuth Distance (km) Brightness Sun altitude
Exits shadow 18:09:45 - 144° (SE) 2,811 5.5 -9.7°
Reaches altitude 10° 18:11:04 10° 141° (SE) 2,295 5.0 -9.9°
Maximum altitude 18:15:55 49° 68° (ENE) 989 3.3 -10.7°
Drops below altitude 10° 18:20:49 10° 355° (N) 2,317 5.8 -11.4°
Sets 18:23:11 0° 350° (N) 3,249 6.6 -11.8°
